Location: Home
(42.5358°N, 72.7383°W)
Time: 02:28:21
(UTC-05:00)

Hubble Space Telescope - Pass Details

Date: 01 November 2021
Orbit: 534 x 538 km, 28.5° (Epoch: 02 December)

Event Time Altitude Azimuth Distance (km) Brightness Sun altitude
Rises 18:41:40 0° 223° (SW) 2,661 5.2 -11.2°
Reaches altitude 10° 18:46:16 10° 177° (S) 1,771 3.5 -12.0°
Maximum altitude 18:46:33 10° 172° (S) 1,767 3.4 -12.1°
Drops below altitude 10° 18:46:50 10° 168° (SSE) 1,771 3.4 -12.1°
Enters shadow 18:49:32 - 136° (SE) 2,149 3.5 -12.6°
